Regional Weather Roundup
Issued by NWS

Home | Current Version | Previous Version | Text Only | Print | Product List | Glossary On
Versions: 1 2 3 4 5 6 7 8 9 10 11 12 13 14 15 16 17 18 19 20 21 22 23 24 25 26 27 28 29 30 31 32 33 34 35 36 37 38 39 40 41 42 43 44 45 46 47 48 49 50
000
ASUS43 KMKX 120259
RWRWI

WISCONSIN REGIONAL WEATHER ROUNDUP
NATIONAL WEATHER SERVICE MILWAUKEE/SULLIVAN WI
900 PM CST MON DEC 11 2017

NOTE: "FAIR" INDICATES FEW OR NO CLOUDS BELOW 12,000 FEET WITH NO
SIGNIFICANT WEATHER AND/OR OBSTRUCTIONS TO VISIBILITY.

WIZ001-002-006>008-014>016-023>028-120400-
NORTHWEST WISCONSIN

CITY           SKY/WX    TMP DP  RH WIND       PRES   REMARKS
SUPERIOR ARPT  PTCLDY    16   8  69 NW15G21   30.16R WCI   1
ASHLAND        CLOUDY    16   7  67 NW14G24   30.11R WCI   2
HAYWARD        MOCLDY    16   6  65 N10G18    30.09R WCI   4
SIREN          CLEAR     16   8  71 NW9       30.14R WCI   5
CUMBERLAND     PTCLDY    18   9  68 NW21      30.09R WCI   1
RICE LAKE      MOCLDY    18   9  68 CALM      30.11R
CHETEK         CLEAR     18   9  70 N7        30.09R WCI   8
LADYSMITH      PTCLDY    18   9  68 NW17G28   30.05R WCI   3
EAU CLAIRE     NOT AVBL
MENOMONIE      CLEAR     21  10  63 NW12      30.11R WCI   9
NEW RICHMOND   CLEAR     19   9  65 NW16      30.14R WCI   4
OSCEOLA        CLEAR     19  10  67 NW12      30.19R WCI   7
$$

WIZ003>005-009-010-017-018-120400-
NORTH CENTRAL WISCONSIN

CITY           SKY/WX    TMP DP  RH WIND       PRES   REMARKS
MANITOWISH WTR CLOUDY    15   9  76 N13G22    29.94R WCI   1
ARBOR VITAE    LGT SNOW  18  12  77 N15G21    29.93R WCI   4
WOODRUFF       LGT SNOW  18  12  77 N15G21    29.93R WCI   4
RHINELANDER    LGT SNOW  17  10  74 NW12G22   29.92R WCI   4
EAGLE RIVER    LGT SNOW  16  11  80 NW20G26   29.90R VSB 1   WCI  -1
LAND O LAKES   CLOUDY    16   9  75 NW20G30   29.92R HAZE    WCI  -1
PHILLIPS       CLOUDY    15   9  75 NW13      29.99R WCI   2
TOMAHAWK       LGT SNOW  17  11  78 NW9G18    29.95R WCI   6
MEDFORD        CLOUDY    18   8  64 NW17G30   29.96R WCI   3
MERRILL        FLURRIES  19  11  71 N17G23    29.95R WCI   4
$$

WIZ029-030-035-036-043>047-120400-
CENTRAL WISCONSIN

CITY           SKY/WX    TMP DP  RH WIND       PRES   REMARKS
WAUSAU         CLOUDY    19   7  59 NW16G26   29.94R WCI   4
MOSINEE        NOT AVBL
MARSHFIELD     MOCLDY    19   9  65 NW22G28   29.97R WCI   2
STEVENS POINT  CLOUDY    21  10  61 NW15G23   29.95R WCI   8
WAUPACA        CLOUDY    27  12  54 NW15G23   29.93R WCI  15
WAUTOMA        FLURRIES  25  15  66 NW18G28   29.95R WCI  11
WISC RAPIDS    PTCLDY    22   9  57 N23G31    29.99R WCI   6
CAMP DOUGLAS   FLURRIES  25  12  58 NW22G30   29.98R WCI  10
$$

WIZ011>013-019>022-031-037>040-048>050-120400-
NORTHEAST WISCONSIN

CITY           SKY/WX    TMP DP  RH WIND       PRES   REMARKS
ANTIGO         CLOUDY    18  10  73 NW15G25   29.89R WCI   3
SHAWANO        CLOUDY    26  14  62 NW15G24   29.91R WCI  13
OCONTO         CLOUDY    24  14  65 N16G22    29.88R WCI  11
STURGEON BAY   CLOUDY    23  12  62 NW21G37   29.86R WCI   8
GREEN BAY      FLURRIES  26  14  60 N23G31    29.89R WCI  11
MANITOWOC      FLURRIES  27  18  69 N20G33    29.85R WCI  13
APPLETON       CLOUDY    25   9  50 NW23G29   29.88R WCI  10
CLINTONVILLE   CLOUDY    25  10  54 N14G24    29.91R WCI  13
OSHKOSH        FLURRIES  26  15  63 NW22G30   29.89R WCI  12
$$

WIZ032>034-041-042-053>061-120400-
SOUTHWEST WISCONSIN

CITY           SKY/WX    TMP DP  RH WIND       PRES   REMARKS
LA CROSSE      PTCLDY    25  13  60 N18G28    30.06R WCI  11
SPARTA         CLOUDY    26  15  65 NW13G21   30.03R WCI  14
VIROQUA        CLOUDY    27  20  75 NW24G31   29.98R WCI  12
BOSCOBEL       CLOUDY    32  20  61 N12G23    30.00R WCI  23
PRAIRIE DU CHI CLOUDY    32  19  59 NW15G28   30.01R WCI  22
PLATTEVILLE    CLOUDY    32  25  75 N14G26    29.95R WCI  22
$$

WIZ056-057-062-063-064-067-068-120400-
SOUTH CENTRAL WISCONSIN

CITY           SKY/WX    TMP DP  RH WIND       PRES   REMARKS
REEDSBURG      CLOUDY    29  18  63 NW22G30   29.94R WCI  15
BARABOO/DELLS  CLOUDY    29  17  60 NW21G31   29.93R WCI  16
LONE ROCK      NOT AVBL
MINERAL POINT  CLOUDY    32  23  69 NW18G29   29.93R WCI  20
MADISON        CLOUDY    30  21  69 NW8G23    29.91R WCI  22
MIDDLETON      CLOUDY    32  23  69 N18G25    29.91R WCI  20
WATERTOWN      CLOUDY    30  25  82 NW12G22   29.88R WCI  20
MONROE         CLOUDY    32  23  69 N18G26    29.90R WCI  20
JANESVILLE     CLOUDY    34  25  69 NW15G21   29.89R WCI  24
$$

WIZ051-052-058>065-066-070>072-120400-
SOUTHEAST WISCONSIN

CITY           SKY/WX    TMP DP  RH WIND       PRES   REMARKS
MILWAUKEE      CLOUDY    31  24  75 NW16G35   29.85R WCI  20
WAUKESHA       CLOUDY    27  21  80 NW16G25   29.86R WCI  14
MILWAUKEE/TIMM CLOUDY    28  21  74 NW12G23   29.86R WCI  18
RACINE         CLOUDY    31  24  75 N15G28    29.86R WCI  20
BURLINGTON     CLOUDY    41  39  92 N20G30    29.86R
KENOSHA        CLOUDY    31  24  75 N14G26    29.84R WCI  21
FOND DU LAC    CLOUDY    28  16  60 NW22G36   29.88R WCI  14
SHEBOYGAN      CLOUDY    29  21  72 N20G26    29.84R WCI  16
WEST BEND      CLOUDY    30  25  80 NW14G20   29.85R WCI  20
JUNEAU         CLOUDY    29  21  71 NW13G20   29.88R WCI  19
$$

LSZ147-162-120400-
LAKE SUPERIOR

STATION/POSITION TIME  TEMP    WIND        PRES    WAVE
                       AIR SEA DIR/SP/G            HT/PER
                 (UTC) (F)     (DEG/KT/KT) (MB)    (FT/S)
DEVILS ISLAND    0200   17     330/ 25/ 29 1020.3R
SAXON HARBOR     0240   21                 1018.3R
$$

LMZ867-665-643>646-120400-
LAKE MICHIGAN

STATION/POSITION TIME  TEMP    WIND        PRES    WAVE
                       AIR SEA DIR/SP/G            HT/PER
                 (UTC) (F)     (DEG/KT/KT) (MB)    (FT/S)
NORTHPORT PIER   0240   26     320/ 33/ 38 1010.2R
KEWAUNEE LAKESHO 0230   26     350/ 12/ 25 1009.8R
SHEBOYGAN LAKESH 0200   29     310/ 15/ 20 1010.6R
PORT WASHINGTON  0240   30     310/  7/ 14 1011.9R
MILWAUKEE LAKESH 0230   31     340/ 14/ 20   N/A
KENOSHA   LAKESH 0200   33     340/ 15/ 20 1009.5
$$

TC  - TEMPERATURE IN CELSIUS
VSB - VISIBILITY IN STATUTE MILES
WCI - WIND CHILL INDEX
HX  - HEAT INDEX





USA.gov is the U.S. government's official web portal to all federal, state and local government web resources and services.